Location: Walton
(43.6794°N, 81.3017°W)
Time: 01:08:14
(UTC+00:00)

Cosmos 2180 Rocket - Pass Details

Date: 09 March 2026
Orbit: 952 x 1004 km, 82.9° (Epoch: 14 April)

Event Time Altitude Azimuth Distance (km) Brightness Sun altitude
Rises 00:05:41 0° 347° (NNW) 3,646 7.7 -8.5°
Reaches altitude 10° 00:08:15 10° 343° (NNW) 2,692 7.1 -9.0°
Maximum altitude 00:14:11 53° 268° (W) 1,153 5.4 -10.1°
Drops below altitude 10° 00:20:05 10° 193° (SSW) 2,673 6.9 -11.1°
Sets 00:22:37 0° 189° (S) 3,617 7.5 -11.6°
